INFORMATIVA BREVE

La informiamo che, per migliorare la sua esperienza di navigazione su questo sito web, utilizziamo diversi tipi di cookie, tra cui:
Cookie di tipo funzionale alla navigazione (functionality cookie); Cookie di tipo pubblicitario (advertising cookie); Cookie di tipo statistico (performance cookie); che consentono di accedere a dati personali raccolti durante la navigazione.
Nella pagina della Informativa Estesa sono presenti le istruzioni per negare il consenso all'installazione di qualunque cookie. Cliccando su "ACCETTA" o continuando la navigazione, saranno attivati tutti i cookie specificati nell'Informativa Estesa ai sensi degli artt. 13 e 14 Reg.to UE 2016/679.

ACCETTA X

Classifica Maratoneti/e Road 2015 in Italia/Mondo

Grazie al lavoro settimanale di recupero dei risultati Road, pubblichiamo l'elenco dei soci che durante il 2015 hanno corso almeno una maratona.

E' importante che i dati vengano aggiornati, quindi se avete un tempo migliore rispetto a quello indicato o non siete inseriti, mandateci le vostre segnalazioni e provvederemo a mantenere aggiornata la classifica.

Massimo Gori

Classifica Maratoneti/e Road 2015 in Italia/Mondo
OrdAtletaCatTempoN¡ MarMiglior MarData
1 PREZIOSA MASSIMO SM45 02:53:18 9 Milano 12/04/15
2 BARACETTI SIMONA STEFANIA SF40 02:56:47 1 Firenze 29/11/15
2 PISTIS GIOVANNI SM45 02:56:47 2 Firenze 29/11/15
4 SCOLLO DANIELE SM40 02:57:12 3 Brescia 15/03/15
5 RONCHETTI MARCO SM40 02:58:29 1 Firenze 29/11/15
6 SCALA STEFANO SM40 02:58:34 5 Roma 22/03/15
7 SECOLI GIORGIO SM 02:58:39 2 Firenze 29/11/15
8 D'ALESSANDRO NICOLA SM45 02:59:37 2 Brescia 15/03/15
9 REPETTI SANDRO SM45 02:59:39 1 Milano 12/04/15
10 BETTONICA CARLO AUGUSTO SM40 02:59:53 2 Trino (VC) 29/11/15
11 CALORI DARIO SM40  03:00:47 2 Reggio Emilia 13/12/15
12 COSTAGLIOLA DI POLIDOR RICCARDO SM  03:00:58 2 Reggio Emilia 13/12/15
12 SCARICABAROZZI PAOLO SM45 03:00:58 2 Milano 12/04/15
14 BATZELLA LUIGI SM40 03:01:59 2 Firenze 29/11/15
15 BISCHETTI GIUSEPPE SM50 03:02:03 2 Brescia 15/03/15
16 CREMONESI FABIO SM50 03:04:12 1 Palma de Mallorca (Spagna) 18/10/15
17 CAPRA ANDREA SM45 03:04:50 1 Firenze 29/11/15
18 REBECCHINI CLEMENTE SM50 03:05:01 1 Firenze 29/11/15
19 RIVA PAOLO SM 03:05:09 2 Roma 22/03/15
20 MASTRANGELO GIANFRANCO SM35 03:06:55 1 Milano 12/04/15
21 SPEIRS CRAIG SM35 03:07:57 1 Milano 12/04/15
22 GENNARELLI FEDERICO SM35 03:08:54 1 Milano 12/04/15
23 GUIDA DIEGO SM50 03:09:40 1 Firenze 29/11/15
24 GALLO MASSIMO SM40 03:10:31 2 Parigi (Francia) 12/04/15
25 GAUDENZI GIORGIO SM45  03:11:20 3 Reggio Emilia 13/12/15
26 MARCHESE MARCO SM40 03:12:20 2 Treviso 01/03/15
27 FLORIDIA GIUSEPPE SM40 03:13:35 2 Pisa 20/12/15
28 GNOCCHI GRAZIANO SM35 03:16:09 2 Pisa 20/12/15
29 BERNARDI FABRIZIO SM35 03:16:22 1 Vienna (Austria) 12/04/15
30 EKMAN LEIF VIKTOR THOMAS SM40 03:16:24 3 Milano 12/04/15
31 CENCI MASSIMO SM50  03:16:58 1 Verbania 18/10/15
32 NEVOLA MARIO SM50 03:17:08 1 Firenze 29/11/15
33 COLOMBO ALESSANDRO SM35 03:20:45 1 Brescia 15/03/15
34 GUSSETTI ANGELO SM50 03:21:40 1 Milano 12/04/15
35 BESTIANI ALESSANDRA SF50 03:22:51 1 Firenze 29/11/15
36 BERETTA ROBERTO SM45 03:24:05 2 Firenze 29/11/15
37 GARAVELLO EMANUELE SM40 03:24:41 2 Milano 12/04/15
38 PAVESI LUCA SM35 03:24:49 2 Pisa 20/12/15
39 PETITO LUIGI SM40 03:24:51 1 Pisa 20/12/15
40 CHEMOLLI FRANCESCO SM40 03:25:12 1 Roma 22/03/15
41 PEGURRI PAOLO SM45 03:25:15 1 Milano 12/04/15
42 RONCHI FRANCESCO SM45  03:25:28 1 Reggio Emilia 13/12/15
43 VAROTTO ALBERTO SM45 03:25:48 2 Firenze 29/11/15
44 MCCLYMONT KEVIN SM 03:26:12 2 Firenze 29/11/15
45 CONSOLI VINCENZO SM50 03:26:30 1 Firenze 29/11/15
46 FACCHINELLI DANIEL SM40 03:26:53 7 Crevalcore (BO) 06/01/15
47 CARTELLI WALTER SM60 03:27:50 1 Milano 12/04/15
48 MASI ALESSANDRO SM45 03:27:53 2 Firenze 29/11/15
49 ROSSI VALERIO SM40 03:28:22 1 Milano 12/04/15
50 BIANCHI ENRICO SM45 03:28:28 1 Milano 12/04/15
51 MELIS ORLANDO SM50 03:28:30 1 Milano 12/04/15
52 RICCI VINCENZO SM50 03:28:43 3 Firenze 29/11/15
53 BELLI GABRIELE SM40 03:29:29 1 Milano 12/04/15
54 CATTANEO ANDREA SM45 03:29:36 1 Milano 12/04/15
55 REBOSIO STEFANO SM45 03:29:42 2 Firenze 29/11/15
56 FAIELLA MATTEO LUIGI SM35  03:30:13 2 Reggio Emilia 13/12/15
57 PANIGADA MICHELE SM35 03:30:26 2 Torino 04/10/15
58 CANNIZZARO CARMELO SM45 03:30:55 2 Ravenna 08/11/15
59 PEDROLINI GIOVANNI SM50 03:32:02 2 Firenze 29/11/15
60 CASATI ALESSANDRO SM35 03:32:13 1 Milano 12/04/15
61 CORRADINI FABIO LUIGI SM50  03:33:03 2 Venezia  25/10/15
62 D'AMMORA LUCA SM45 03:33:05 1 Roma 22/03/15
63 PARRAVICINI CRISTINA SF40 03:33:27 2 Porto (Portogallo) 08/11/15
64 NAVA PAOLO CARLO SM45 03:33:58 2 Milano 12/04/15
65 QUATTRIN IGNAZIO SM40 03:34:20 2 Berlino (Germania) 27/09/15
66 BURZONI MANUELA SF45 03:34:22 2 Roma 22/03/15
67 DELL'ORLETTA DOMENICO SM35 03:34:31 1 Vienna (Austria) 12/04/15
68 CORRADINI ANTONELLA SF 03:34:33 3 Roma 22/03/15
69 ANTENUCCI ELVIRA SF40 03:34:45 1 Milano 12/04/15
70 MALINVERNI RAFFAELE SM35 03:35:32 1 Milano 12/04/15
71 PALAIA GIUSEPPE SM45 03:35:49 1 Roma 22/03/15
72 VALVASSORI MARCO SM55  03:36:05 2 Reggio Emilia 13/12/15
73 CONDELLO DANIELA SF35 03:36:15 1 Malaga (Spagna) 06/12/15
73 GIROLA CRISTIANO SM35 03:36:15 2 Milano 12/04/15
75 TRIVELLI DAVIDE SM45 03:36:27 1 Roma 22/03/15
76 MARZOLA RENATO SM45 03:36:30 2 Milano 12/04/15
76 MISANI CRISTIANO SM45 03:36:30 1 Milano 12/04/15
78 DEL MONTE ANDREA SM50 03:37:49 1 Milano 12/04/15
79 BISCHETTI ARMANDO SM55  03:37:50 2 Malcesine (VR) 18/10/15
80 ZALETTO MASSIMO SM45  03:37:54 1 Carpi (MO) 11/10/15
81 FIORENTINI PATRIZIA SF40 03:37:55 1 Firenze 29/11/15
81 GOTTIFREDI MATTEO SM40 03:37:55 1 Firenze 29/11/15
83 GHIDONI ANDREA SM40 03:39:01 1 Milano 12/04/15
84 BOSIO PAOLO SM35 03:39:09 1 Milano 12/04/15
85 D'AGOSTINO PAOLO SM45 03:39:39 1 Zurigo (Svizzera) 19/04/15
86 FICICCHIA FRANCESCO SM50 03:39:49 1 Milano 12/04/15
87 ALBRETTI ALESSANDRA SF45  03:40:35 1 Carpi (MO) 11/10/15
88 PICONE CLAUDIO SM40 03:40:37 1 Milano 12/04/15
89 TROVATO MARIO SM40 03:41:32 1 Cividale del Friuli (UD) 29/03/15
90 FASOLI ANGELO SM 03:41:35 1 Roma 22/03/15
91 GRAZIANI GIULIO SM40 03:41:47 1 Milano 12/04/15
92 DE CICCO GUSTAVO SM45 03:42:03 2 Milano 12/04/15
93 RENZELLI RENZO SM40 03:42:12 2 Roma 22/03/15
94 MONDONICO GIORGIO SM35 03:42:45 1 Milano 12/04/15
95 GROTTO ANTONIO SM65  03:43:17 1 Verbania 18/10/15
96 GAFFURI PAOLO SM45 03:44:01 1 Milano 12/04/15
97 FRISARDI SEBASTIANO SM35 03:44:21 1 Milano 12/04/15
98 ROSA EUGENIO DOMENICO SM55 03:44:50 1 Milano 12/04/15
99 DEL SOLDÀ GIACOMO SM45  03:45:15 1 Venezia  25/10/15
100 PIRAS LAURA SF50 03:45:43 1 Milano 12/04/15
100 CANORI ANDREA SM40 03:45:43 2 Firenze 29/11/15
102 CRESPI GIANLUCA SM40 03:45:46 1 Milano 12/04/15
103 DELLI CARRI SIMONE GIACOMO SM40 03:46:42 1 Milano 12/04/15
104 MAFFONI MARCO SM45 03:47:45 1 Milano 12/04/15
105 SALA MASSIMO SM50 03:48:08 1 Milano 12/04/15
106 CATTANEO ROBERTO SM50 03:48:09 2 Santhià (VC) 01/05/15
107 ZORDAN LORENZO SM55 03:48:16 1 Milano 12/04/15
108 DI FEBO DANIELE SM45 03:48:19 2 Firenze 29/11/15
109 GALANTINO MARCELLA SF 03:48:37 1 Milano 12/04/15
110 SCAGLIA RICCARDO SM50  03:48:54 2 Venezia  25/10/15
111 MESSINA FRANCESCO SM50 03:48:55 3 Firenze 29/11/15
112 DEBELLIS AURELIA SF35 03:49:07 1 Barcellona (Spagna) 15/03/15
113 LAMONICA LOREDANA SF50 03:49:44 1 Boston (USA) 20/04/15
114 FANTOZZI STEFANO SM45 03:49:49 1 Milano 12/04/15
115 FOSSATI MARIA ILARIA SF40 03:50:21 1 Crevalcore (BO) 06/01/15
116 MARK JAMES SM35 03:50:22 1 Firenze 29/11/15
117 FUMAGALLI LORELLA SF55 03:50:48 1 Milano 12/04/15
118 TOMASSONE DIEGO SM35 03:51:53 1 Milano 12/04/15
119 FEROLA RENATO SM40 03:52:26 1 Firenze 29/11/15
120 ROMAGNONI MATTEO SM45 03:52:45 1 Milano 12/04/15
121 RONDINI NICOLA SM35 03:52:46 1 Milano 12/04/15
122 GIANOLA ANDREA SM45  03:53:18 1 Venezia  25/10/15
123 MILANI BIANCA SF40 03:53:27 1 New York (Usa) 01/11/15
124 VERGNANO DAVIDE GIUSEPPE SM40 03:53:45 1 Milano 12/04/15
125 BUZZI ANDREA SM45 03:54:12 1 Roma 22/03/15
126 PAGANI LUIGI SM55 03:54:18 1 Milano 12/04/15
127 LOCATELLI MAURO SM45 03:54:45 2 Roma 22/03/15
128 STRINGHETTI LUCA SM40 03:54:58 1 Milano 12/04/15
129 BONAITA MAURIZIO SM60 03:55:12 1 Milano 12/04/15
130 ZERBINI ALBERTO SM60 03:55:15 1 Milano 12/04/15
131 CALLEGHER CRISTINA SF45 03:55:37 2 Firenze 29/11/15
132 ARDENTI ROBERTO SM50 03:56:27 3 Verbania 18/10/15
133 TEDESCHI ROCCO SM40 03:56:30 1 Milano 12/04/15
134 RE ITALO SM60 03:56:38 2 Verona 15/11/15
135 TARANTINI NICOLA SM45  03:56:48 1 Reggio Emilia 13/12/15
136 MANZI ALESSANDRO MATTEO SM45 03:56:50 3 Milano 12/04/15
137 GALASSO ENRICO SM40 03:57:01 1 Parigi (Francia) 12/04/15
138 CISCO ALESSANDRO SM35  03:57:06 1 Venezia  25/10/15
139 MENON GABRIELLA SF50 03:57:23 3 Milano 12/04/15
140 DARI MARCO SM60 03:57:24 5 Salso/Fidenza (PR) 22/02/15
141 NAVA MARCO ROBERTO SM55 03:57:34 1 Milano 12/04/15
142 ORLANDI RICCARDO SM35 03:57:40 1 Milano 12/04/15
143 SALLUSTI LAURA SF 03:57:48 2 Firenze 29/11/15
144 PIROLA MATTEO SM40 03:57:49 1 Zurigo (Svizzera) 19/04/15
145 CALABRESE FRANCESCO SM50 03:57:50 2 Firenze 29/11/15
146 ZAMPEDRI FLAVIO SM55 03:57:52 1 Milano 12/04/15
147 CHIRICHELLA COSTABILE SM45 03:58:07 2 Parigi (Francia) 12/04/15
148 ANDESE DIEGO SM40 03:58:39 1 Stoccolma (Svezia) 30/05/15
149 MADDONINI MASSIMO SM55 03:58:54 1 Trino (VC) 29/11/15
150 BLASI SIMONE SM40 03:59:04 3 Pisa 20/12/15
151 TOMBA LUCA SM50 03:59:17 1 Milano 12/04/15
152 VENDRAMINI MATTEO FAUSTINO SM40 03:59:18 1 Milano 12/04/15
153 LOGLISCI ANTONIO SM40 03:59:53 1 Milano 12/04/15
154 SASSO PIERMARIO SM65 04:00:16 2 Trino (VC) 29/11/15
155 NATERI LAURA SF45 04:00:23 1 Londra (Gran Bretagna) 26/04/15
156 BORRONI MICHELE SM50 04:00:41 1 Milano 12/04/15
157 IENCO MARIA SF55 04:00:48 2 Firenze 29/11/15
158 CAVALLO FRANCESCO SM35 04:00:52 1 Milano 12/04/15
159 COLELLA MASSIMO SM40 04:01:26 1 Milano 12/04/15
160 CROTTI VIVIANA SF50 04:02:08 1 Milano 12/04/15
161 DOGNINI MAURO LORENZO SM45 04:03:59 1 Pisa 20/12/15
162 NAVA ALBERTO SM 04:04:11 1 Milano 12/04/15
163 RUOPPOLO SALVATORE SM40  04:04:23 1 Reggio Emilia 13/12/15
163 ASSEGNATI FRANCESCO SM45  04:04:23 1 Reggio Emilia 13/12/15
165 FERRARI DAVID SM35  04:05:05 1 Reggio Emilia 13/12/15
165 COZZI MASSIMO SM45  04:05:05 1 Carpi (MO) 11/10/15
167 PROSPERI GIUSEPPE SM45 04:05:23 1 Milano 12/04/15
168 LO RE VINCENZO SM50 04:05:53 1 Milano 12/04/15
169 DIOGUARDI SALVATORE SM45 04:05:58 1 Zurigo (Svizzera) 19/04/15
170 CASOTTI CHRISTIAN SM40 04:06:01 1 Milano 12/04/15
171 ZANDERIGO ROSOLO ALESSANDRO SM45 04:07:07 1 Milano 12/04/15
172 PEREGO ETTORE SM60 04:07:50 1 Firenze 29/11/15
173 MATTARELLO MASSIMO SM40 04:08:09 1 Ferrara 15/03/15
174 BALDON PAOLO SM45 04:08:41 1 Milano 12/04/15
175 FINIZIO STEFANO SM30 04:09:33 1 Zurigo (Svizzera) 19/04/15
176 BASEGGIO GIULIA SF45 04:09:40 1 Milano 12/04/15
177 CANDIA MAURIZIO SM35 04:09:50 1 Roma 22/03/15
177 LAFACE VALENTINO SM40 04:09:50 1 Roma 22/03/15
179 SCANZIANI SOFIA SF40 04:10:01 1 Milano 12/04/15
179 CARCANO ALESSIO SM45 04:10:01 1 Milano 12/04/15
181 GUSMAROLI DARIO SM50 04:10:33 2 Firenze 29/11/15
182 FROSIN SORIN SM 04:10:37 2 Milano 12/04/15
183 FETALVERO ERIC SM40 04:10:41 1 Milano 12/04/15
184 COSTANTINI FRANCESCO SM45 04:10:50 1 Firenze 29/11/15
185 SECCHI LUCA SM40  04:11:05 2 Verbania 18/10/15
186 FEDELI DANIELE SM60 04:11:07 2 Milano 12/04/15
187 COSTADONE DAVIDE SM45 04:11:21 1 Milano 12/04/15
188 RIVA GUIDO ANNIBALE SM50 04:13:12 1 Milano 12/04/15
189 BRAMBILLA GIULIANO SM65 04:14:59 3 Valencia (Spagna) 16/11/15
190 BESTETTI PAOLO SM35 04:15:52 2 Firenze 29/11/15
191 SQUINZI CLAUDIO SM45 04:17:11 1 Firenze 29/11/15
192 BIANCHINI OMAR SM35 04:17:25 1 Milano 12/04/15
193 IAMUNDO ANDREA SM40 04:18:02 1 Milano 12/04/15
194 SAVOIA MARCO SM 04:18:11 1 Milano 12/04/15
195 MASCETTI MARTA SF 04:19:08 3 Milano 12/04/15
196 ALBINI ELENA SF45 04:19:09 3 Milano 12/04/15
197 AGLIOTI DI ROBILANT VALENTINA SF40 04:19:26 1 Roma 22/03/15
198 BALSARI LUCA SM50 04:19:36 1 Milano 12/04/15
199 MANGO FRANCESCO SM50 04:19:40 1 Milano 12/04/15
200 MEVIO PAOLO SM50 04:21:09 1 New York (Usa) 01/11/15
201 COTTI ROBERTO SM50  04:21:59 1 Roma 22/03/15
202 MORILLO RODRIGUEZ MARTA SF35 04:22:15 1 Roma 22/03/15
203 SPECCHIO ALESSANDRO SM45 04:22:34 1 Milano 12/04/15
204 NICOLINI GIANLUCA SM50 04:22:45 2 Roma 22/03/15
205 SAITO SHIORI SF 04:22:48 1 Milano 12/04/15
206 PENSABENE FRANCESCO SM55 04:22:56 2 Milano 12/04/15
206 SECCO MARCO SM55 04:22:56 2 Milano 12/04/15
208 RAMIREZ QUINTANILLA MAURICIO ANDRES SM40 04:23:31 1 Milano 12/04/15
209 COLOMBO PAOLO SM45 04:23:56 1 Milano 12/04/15
209 SETZU MAURIZIO SM45 04:23:56 2 Milano 12/04/15
211 PERACCHIO GIOVANNI SM50 04:25:05 1 Milano 12/04/15
212 GRASSELLI MASSIMO SM60 04:25:56 1 Boston (USA) 20/04/15
213 CERRA MARTINA SF  04:26:01 1 Venezia  25/10/15
214 OLDANI ALESSIA SF35 04:26:30 1 Praga (Rep. Ceca) 03/05/15
215 MORETTO GIAN ANDREA SM45 04:26:30 1 Milano 12/04/15
216 ZOCCHI SANDRO SM55 04:27:15 1 Milano 12/04/15
217 DI LERNIA NADIA SF45 04:27:48 1 Roma 22/03/15
218 RE ITALO SM60 04:27:56 1 Roma 22/03/15
219 ELLI ROBERTO SM60 04:28:17 1 Milano 12/04/15
220 BELLOLI ALESSANDRO SM45 04:28:28 1 Milano 12/04/15
221 ROGNONI GIANLUCA SM35 04:29:29 1 Milano 12/04/15
222 COLUCCI LAURA SF35 04:31:34 2 Milano 12/04/15
223 COLOMBO MAURIZIO SM55 04:34:59 5 Trino (VC) 29/11/15
224 CAFARO GIANPAOLO SM35 04:35:24 1 Milano 12/04/15
225 RAGGI MARCO SM45 04:36:53 1 Milano 12/04/15
226 CIMMINO MATTEO SM40 04:36:55 1 Milano 12/04/15
227 GRASSI CLAUDIO GEROLAMO SM40 04:37:01 1 Milano 12/04/15
228 CAVERA MOIRA SF40 04:37:35 1 Milano 12/04/15
229 COLLURA SARA SF35 04:38:01 1 Milano 12/04/15
230 DI TERLIZZI GIUSEPPE LEONARDO SM50  04:39:47 1 Roma 22/03/15
231 FRATI RAFFAELLA SF50 04:39:55 1 Firenze 29/11/15
232 FORTUNATO PAOLA SF45  04:40:25 2 Venezia  25/10/15
233 OLTOLINA RUGGERO SM45  04:40:35 1 Venezia  25/10/15
234 GRANDI LORELLA SF45 04:41:29 1 Milano 12/04/15
235 NECCHI DARIO SM55 04:42:49 1 Roma 22/03/15
236 SARDO GIANLUCA SM40  04:42:53 2 Venezia  25/10/15
237 TOSI ENRICO SM40  04:44:08 1 Malaga (Spagna) 06/12/15
238 TIEZZI ROBERTO SM45 04:45:26 1 Interlaken (Svizzera) 12/09/15
239 DISARÒ MARILENA SF45 04:45:43 1 Firenze 29/11/15
240 BATTIOLI ENRICO SM55 04:47:27 1 Roma 22/03/15
241 VERONESI PAOLO SM40 04:49:37 1 Milano 12/04/15
242 BRILLO ANTONIO SM55 04:50:20 1 Milano 12/04/15
243 ZAMPEDRI ERNESTO SM60 04:50:27 1 Milano 12/04/15
244 CABRINI FRANCO SM65 04:52:02 1 Milano 12/04/15
245 AMATO DAVIDE JACOPO SM45 04:52:21 2 Berlino (Germania) 27/09/15
246 GRILLO GIACOBBE SM65  04:53:09 2 Reggio Emilia 13/12/15
247 TOMMASINI GIANLUCA SM50  04:53:38 1 Venezia  25/10/15
248 GALLI UMBERTO SM45 04:54:32 1 Milano 12/04/15
249 TIEGHI CHIARA ANGELA SF55 04:54:48 1 Milano 12/04/15
250 BUCCERI MICHELE SM45 04:55:02 1 Milano 12/04/15
251 COMBA FABIO SM40 04:57:29 1 Milano 12/04/15
252 FIORENTINI SILVIA SF45 04:58:21 1 Roma 22/03/15
253 PEGORINI SIMONA SF35 04:58:32 1 Roma 22/03/15
254 DE BERARDINIS PAOLO SM50  04:58:45 1 Roma 22/03/15
255 CAMBARERI GIUSEPPE SM50 05:00:38 1 Milano 12/04/15
256 FARINI CLAUDIA NADIA SF40 05:00:39 1 Milano 12/04/15
257 RUFFINI RENATO SM50  05:02:38 2 Venezia  25/10/15
258 CAMPANILE GIUSEPPE SM35 05:03:39 1 Roma 22/03/15
259 FILIPPELLI GIUSEPPE DAVIDE SM60 05:04:25 1 Milano 12/04/15
260 MERCATI GUIDO SM65 05:07:59 1 Milano 12/04/15
261 MARSILII TIZIANO SM50 05:12:01 1 Milano 12/04/15
262 LUNGHI MASSIMILIANO SM50 05:12:34 1 Milano 12/04/15
263 TOSI MAURIZIO SM55 05:12:46 1 Barcellona (Spagna) 15/03/15
264 LOCATELLI MATTEO MARIA SM40 05:13:16 1 Milano 12/04/15
265 CARACENI DANIELA SF60 05:26:37 1 Londra (Gran Bretagna) 26/04/15
266 MANDELLI PIERGIORGIO SM60 05:26:46 1 Milano 12/04/15
267 CARACENI NICOLETTA SF55 05:33:50 1 Londra (Gran Bretagna) 26/04/15
268 AMATO GIONATA SM40 05:40:18 1 Milano 12/04/15
269 MEDALI ERMETE ERNESTO SM50 05:43:31 1 Milano 12/04/15
270 CASIRAGHI DONATA SF45 05:54:36 1 Roma 22/03/15
271 ROSSI FRANZ SM50  05:58:07 1 Roma 22/03/15
272 ROWSELL ANNA SF45 06:10:23 1 Milano 12/04/15
273 CAVALLI MONICA SF45 06:41:47 1 New York (Usa) 01/11/15


Totale Maratone corse:387
Totale chilometri corsi:16.329,47
Totale Maratoneti:272
Totale Uomini:224
Totale Donne:48
Percentuale Donne:18%




 Questo mese 
 Luglio 
Lu Ma Me Gi Ve Sa Do
1 2 3 4 5 6 7
8 9 10 11 12 13 14
15 16 17 18 19 20 21
22 23 24 25 26 27 28
29 30 31
Oggi  Jul 21, 2019